Location: Newark
(45.4422°N, 16.2769°E)
Time: 10:48:58
(UTC+00:00)

Tiros 1 despin weight - Pass Details

Date: 19 December 2019
Orbit: 594 x 642 km, 48.2° (Epoch: 27 January)

Event Time Altitude Azimuth Distance (km) Brightness Sun altitude
Rises 00:33:03 0° 225° (SW) 2,915 - -59.9°
Reaches altitude 10° 00:35:28 10° 219° (SW) 2,004 - -59.5°
Maximum altitude 00:39:49 43° 148° (SSE) 876 - -58.9°
Drops below altitude 10° 00:44:09 10° 77° (ENE) 1,983 - -58.3°
Sets 00:46:31 0° 71° (ENE) 2,882 - -58.0°
